TimeEDT,TemperatureF,Dew PointF,Humidity,Sea Level PressureIn,VisibilityMPH,Wind Direction,Wind SpeedMPH,Gust SpeedMPH,PrecipitationIn,Events,Conditions,WindDirDegrees,DateUTC
12:53 AM,42.1,35.1,76,30.15,10.0,SW,9.2,-,N/A,,Clear,230,2012-10-08 04:53:00
1:53 AM,43.0,34.0,71,30.15,10.0,SW,13.8,-,N/A,,Clear,220,2012-10-08 05:53:00
2:53 AM,42.1,34.0,73,30.17,10.0,SW,11.5,-,N/A,,Clear,220,2012-10-08 06:53:00
3:53 AM,41.0,34.0,76,30.18,10.0,SW,12.7,-,N/A,,Clear,220,2012-10-08 07:53:00
4:53 AM,41.0,34.0,76,30.19,10.0,SW,8.1,-,N/A,,Clear,220,2012-10-08 08:53:00
5:53 AM,41.0,34.0,76,30.19,10.0,South,6.9,-,N/A,,Mostly Cloudy,190,2012-10-08 09:53:00
6:53 AM,42.1,35.1,76,30.21,10.0,South,3.5,-,N/A,,Overcast,180,2012-10-08 10:53:00
7:53 AM,41.0,35.1,79,30.23,10.0,South,5.8,-,N/A,,Overcast,190,2012-10-08 11:53:00
8:53 AM,42.1,36.0,79,30.23,10.0,Variable,3.5,-,N/A,,Overcast,0,2012-10-08 12:53:00
9:53 AM,44.1,36.0,73,30.23,10.0,SSW,4.6,-,N/A,,Mostly Cloudy,200,2012-10-08 13:53:00
10:53 AM,46.9,36.0,66,30.25,10.0,SSW,8.1,-,N/A,,Overcast,200,2012-10-08 14:53:00
11:53 AM,48.9,32.0,52,30.25,10.0,SW,6.9,-,N/A,,Overcast,220,2012-10-08 15:53:00
12:53 PM,51.1,32.0,48,30.23,10.0,West,5.8,-,N/A,,Clear,260,2012-10-08 16:53:00
1:53 PM,52.0,32.0,47,30.21,10.0,South,4.6,-,N/A,,Partly Cloudy,190,2012-10-08 17:53:00
2:53 PM,51.1,32.0,48,30.19,10.0,SSE,8.1,-,N/A,,Mostly Cloudy,160,2012-10-08 18:53:00
3:53 PM,53.1,33.1,47,30.19,10.0,South,8.1,-,N/A,,Overcast,170,2012-10-08 19:53:00
4:53 PM,53.1,34.0,48,30.18,10.0,SE,8.1,-,N/A,,Overcast,140,2012-10-08 20:53:00
5:53 PM,51.1,34.0,52,30.17,10.0,SE,9.2,-,N/A,,Scattered Clouds,140,2012-10-08 21:53:00
6:53 PM,50.0,32.0,50,30.17,10.0,SSE,11.5,-,N/A,,Scattered Clouds,150,2012-10-08 22:53:00
8:53 PM,46.0,34.0,63,30.17,10.0,South,8.1,-,N/A,,Clear,180,2012-10-09 00:53:00
9:53 PM,45.0,34.0,65,30.18,10.0,SSE,6.9,-,N/A,,Clear,160,2012-10-09 01:53:00
10:53 PM,44.1,35.1,71,30.19,10.0,SSE,8.1,-,N/A,,Clear,160,2012-10-09 02:53:00
11:53 PM,43.0,35.1,74,30.19,10.0,SSE,6.9,-,N/A,,Clear,160,2012-10-09 03:53:00